AFL154 ULLI-UUEE

Flight info

Callsign AFL154
Flight time 0h 53m
Altitude 31000
Route SUGIN T873 NIRGI T73 NAMIN
Aircraft A333/M-SDFGRYZ/S

Departure

Time 2026-05-07 15:24
Airport Pulkovo Airport (ULLI)

Arrival

Time 2026-05-07 16:17
Airport Sheremetyevo International Airport (UUEE)
Time Latitude Longitude Altitude Speed Heading
2026-05-07 15:04 59.80039 30.26806 91 ft 0 kts 106°
2026-05-07 15:14 59.80045 30.26767 91 ft 3 kts 106°
2026-05-07 15:14 59.80049 30.26742 90 ft 1 kts 108°
2026-05-07 15:14 59.80052 30.26723 90 ft 0 kts 117°
2026-05-07 15:15 59.80057 30.26707 90 ft 1 kts 133°
2026-05-07 15:15 59.80063 30.26696 90 ft 1 kts 148°
2026-05-07 15:15 59.80069 30.26689 90 ft 1 kts 163°
2026-05-07 15:15 59.80077 30.26685 90 ft 1 kts 177°
2026-05-07 15:16 59.80084 30.26685 90 ft 1 kts 191°
2026-05-07 15:16 59.80091 30.26688 90 ft 0 kts 195°
2026-05-07 15:16 59.80092 30.26689 90 ft 0 kts 196°
2026-05-07 15:17 59.80092 30.26688 90 ft 0 kts 196°
2026-05-07 15:17 59.80054 30.26667 90 ft 10 kts 194°
2026-05-07 15:18 59.79956 30.26615 91 ft 19 kts 197°
2026-05-07 15:18 59.79798 30.26520 92 ft 25 kts 195°
2026-05-07 15:18 59.79624 30.26419 91 ft 26 kts 195°
2026-05-07 15:18 59.79518 30.26285 91 ft 16 kts 269°
2026-05-07 15:19 59.79542 30.26050 92 ft 18 kts 284°
2026-05-07 15:19 59.79583 30.25779 93 ft 22 kts 287°
2026-05-07 15:19 59.79631 30.25470 94 ft 24 kts 288°
2026-05-07 15:19 59.79680 30.25140 95 ft 25 kts 285°
2026-05-07 15:20 59.79732 30.24786 90 ft 28 kts 286°
2026-05-07 15:20 59.79789 30.24397 88 ft 30 kts 286°
2026-05-07 15:20 59.79850 30.23992 88 ft 31 kts 285°
2026-05-07 15:20 59.79911 30.23582 87 ft 32 kts 286°
2026-05-07 15:21 59.79974 30.23145 85 ft 33 kts 287°
2026-05-07 15:21 59.80041 30.22696 84 ft 34 kts 284°
2026-05-07 15:21 59.80103 30.22272 81 ft 23 kts 285°
2026-05-07 15:21 59.80103 30.22087 81 ft 13 kts 238°
2026-05-07 15:22 59.80045 30.21938 81 ft 14 kts 217°
2026-05-07 15:22 59.79970 30.21993 82 ft 12 kts 112°
2026-05-07 15:22 59.79964 30.22038 82 ft 0 kts 106°
2026-05-07 15:23 59.79963 30.22041 82 ft 0 kts 106°
2026-05-07 15:23 59.79946 30.22152 82 ft 33 kts 106°
2026-05-07 15:23 59.79793 30.23177 86 ft 119 kts 106°
2026-05-07 15:24 59.79497 30.25194 177 ft 178 kts 105°
2026-05-07 15:24 59.79105 30.27654 739 ft 189 kts 107°
2026-05-07 15:24 59.78706 30.30084 1419 ft 191 kts 104°
2026-05-07 15:24 59.78331 30.32639 2084 ft 196 kts 103°
2026-05-07 15:25 59.77955 30.35247 2727 ft 202 kts 103°
2026-05-07 15:25 59.77563 30.37969 3379 ft 209 kts 103°
2026-05-07 15:25 59.77160 30.40756 4024 ft 216 kts 103°
2026-05-07 15:25 59.76773 30.43646 4660 ft 222 kts 96°
2026-05-07 15:26 59.76396 30.46653 5307 ft 229 kts 109°
2026-05-07 15:26 59.75865 30.49658 5850 ft 241 kts 105°
2026-05-07 15:26 59.75357 30.52884 6396 ft 254 kts 104°
2026-05-07 15:26 59.74832 30.56321 6967 ft 267 kts 104°
2026-05-07 15:27 59.74344 30.59963 7494 ft 280 kts 102°
2026-05-07 15:27 59.73837 30.63748 8055 ft 294 kts 103°
2026-05-07 15:27 59.73307 30.67712 8588 ft 307 kts 103°
2026-05-07 15:27 59.72746 30.71891 9140 ft 321 kts 104°
2026-05-07 15:28 59.72161 30.76235 9657 ft 334 kts 104°
2026-05-07 15:28 59.71554 30.80723 10181 ft 347 kts 104°
2026-05-07 15:28 59.70919 30.85422 10730 ft 360 kts 104°
2026-05-07 15:28 59.70259 30.90281 11252 ft 372 kts 105°
2026-05-07 15:29 59.69584 30.95235 11760 ft 383 kts 105°
2026-05-07 15:29 59.68876 31.00406 12267 ft 394 kts 105°
2026-05-07 15:29 59.68161 31.05621 12775 ft 403 kts 106°
2026-05-07 15:29 59.67420 31.11009 13280 ft 407 kts 106°
2026-05-07 15:30 59.66672 31.16423 13773 ft 409 kts 107°
2026-05-07 15:30 59.65928 31.21795 14266 ft 412 kts 107°
2026-05-07 15:30 59.65163 31.27289 14769 ft 416 kts 107°
2026-05-07 15:30 59.64395 31.32793 15265 ft 421 kts 107°
2026-05-07 15:31 59.63618 31.38342 15757 ft 425 kts 107°
2026-05-07 15:31 59.62828 31.43967 16269 ft 429 kts 108°
2026-05-07 15:31 59.62020 31.49693 16768 ft 434 kts 108°
2026-05-07 15:31 59.61211 31.55409 17271 ft 438 kts 108°
2026-05-07 15:32 59.60387 31.61205 17769 ft 443 kts 108°
2026-05-07 15:32 59.59556 31.67038 18269 ft 447 kts 109°
2026-05-07 15:32 59.58712 31.72941 18760 ft 452 kts 109°
2026-05-07 15:32 59.57858 31.78894 19259 ft 456 kts 109°
2026-05-07 15:33 59.56986 31.84949 19760 ft 459 kts 110°
2026-05-07 15:33 59.56106 31.91028 20255 ft 463 kts 110°
2026-05-07 15:33 59.55228 31.97069 20750 ft 467 kts 110°
2026-05-07 15:33 59.54327 32.03257 21256 ft 469 kts 110°
2026-05-07 15:34 59.53227 32.09222 21732 ft 463 kts 123°
2026-05-07 15:34 59.51421 32.14304 22206 ft 452 kts 139°
2026-05-07 15:34 59.49239 32.18705 22715 ft 450 kts 141°
2026-05-07 15:34 59.47038 32.23051 23220 ft 452 kts 142°
2026-05-07 15:35 59.44828 32.27380 23584 ft 456 kts 142°
2026-05-07 15:35 59.42574 32.31778 23957 ft 460 kts 142°
2026-05-07 15:35 59.40300 32.36204 24360 ft 464 kts 142°
2026-05-07 15:35 59.38012 32.40646 24746 ft 467 kts 142°
2026-05-07 15:36 59.35700 32.45129 25144 ft 470 kts 142°
2026-05-07 15:36 59.33370 32.49639 25550 ft 473 kts 142°
2026-05-07 15:36 59.31046 32.54125 25951 ft 475 kts 142°
2026-05-07 15:36 59.28695 32.58655 26362 ft 478 kts 142°
2026-05-07 15:37 59.26321 32.63218 26765 ft 480 kts 142°
2026-05-07 15:37 59.23964 32.67741 27160 ft 481 kts 143°
2026-05-07 15:37 59.21575 32.72319 27558 ft 483 kts 143°
2026-05-07 15:37 59.19181 32.76889 27952 ft 484 kts 143°
2026-05-07 15:38 59.16803 32.81428 28351 ft 485 kts 143°
2026-05-07 15:38 59.14388 32.86021 28745 ft 485 kts 143°
2026-05-07 15:38 59.11993 32.90569 29143 ft 486 kts 143°
2026-05-07 15:38 59.09563 32.95171 29548 ft 486 kts 143°
2026-05-07 15:39 59.07176 32.99688 29945 ft 486 kts 143°
2026-05-07 15:39 59.04756 33.04255 30351 ft 486 kts 143°
2026-05-07 15:39 59.02331 33.08825 30757 ft 486 kts 143°
2026-05-07 15:39 58.99891 33.13407 31030 ft 489 kts 143°
2026-05-07 15:40 58.97461 33.17958 30929 ft 498 kts 143°
2026-05-07 15:40 58.94958 33.22648 30974 ft 502 kts 143°
2026-05-07 15:40 58.89898 33.32084 30903 ft 511 kts 143°
2026-05-07 15:41 58.87369 33.36792 31022 ft 511 kts 143°
2026-05-07 15:41 58.84803 33.41551 30989 ft 514 kts 143°
2026-05-07 15:41 58.79673 33.51048 30969 ft 507 kts 143°
2026-05-07 15:42 58.74607 33.60369 30891 ft 508 kts 143°
2026-05-07 15:42 58.72096 33.64981 31003 ft 503 kts 143°
2026-05-07 15:42 58.69549 33.69643 30958 ft 505 kts 143°
2026-05-07 15:43 58.64493 33.78879 31022 ft 503 kts 143°
2026-05-07 15:43 58.61964 33.83478 30897 ft 508 kts 143°
2026-05-07 15:43 58.59404 33.88130 30946 ft 504 kts 143°
2026-05-07 15:44 58.54313 33.97348 30881 ft 505 kts 143°
2026-05-07 15:44 58.51787 34.01907 30984 ft 504 kts 143°
2026-05-07 15:44 58.49255 34.06468 30939 ft 508 kts 143°
2026-05-07 15:45 58.44132 34.15669 30998 ft 506 kts 143°
2026-05-07 15:45 58.39036 34.24782 30917 ft 505 kts 143°
2026-05-07 15:46 58.31340 34.38470 30959 ft 504 kts 143°
2026-05-07 15:47 58.26191 34.47580 30872 ft 507 kts 143°
2026-05-07 15:47 58.23631 34.52099 30977 ft 507 kts 143°
2026-05-07 15:47 58.21067 34.56610 30908 ft 508 kts 143°
2026-05-07 15:48 58.15736 34.65216 30981 ft 504 kts 147°
2026-05-07 15:48 58.13041 34.69478 30861 ft 506 kts 146°
2026-05-07 15:48 58.10384 34.73681 30919 ft 502 kts 147°
2026-05-07 15:49 58.05029 34.82123 30843 ft 504 kts 146°
2026-05-07 15:49 58.02333 34.86365 30954 ft 503 kts 147°
2026-05-07 15:49 57.99666 34.90548 30898 ft 504 kts 146°
2026-05-07 15:50 57.94281 34.98972 30966 ft 503 kts 146°
2026-05-07 15:50 57.91598 35.03154 30851 ft 506 kts 146°
2026-05-07 15:50 57.88881 35.07388 30898 ft 505 kts 146°
2026-05-07 15:51 57.83495 35.15743 30853 ft 505 kts 146°
2026-05-07 15:51 57.80819 35.19888 30956 ft 503 kts 146°
2026-05-07 15:51 57.78093 35.24092 30886 ft 506 kts 146°
2026-05-07 15:52 57.72684 35.32420 30969 ft 505 kts 146°
2026-05-07 15:52 57.69991 35.36553 30838 ft 507 kts 146°
2026-05-07 15:52 57.67289 35.40692 30899 ft 505 kts 146°
2026-05-07 15:53 57.61825 35.49038 30838 ft 506 kts 146°
2026-05-07 15:53 57.59136 35.53137 30951 ft 505 kts 146°
2026-05-07 15:53 57.56421 35.57283 30860 ft 509 kts 146°
2026-05-07 15:53 57.53685 35.61451 30516 ft 506 kts 146°
2026-05-07 15:54 57.50995 35.65543 30216 ft 501 kts 146°
2026-05-07 15:54 57.48294 35.69643 29966 ft 498 kts 146°
2026-05-07 15:54 57.45632 35.73676 29707 ft 496 kts 146°
2026-05-07 15:54 57.42977 35.77683 29408 ft 495 kts 146°
2026-05-07 15:55 57.40342 35.81663 29131 ft 492 kts 146°
2026-05-07 15:55 57.37687 35.85661 28860 ft 489 kts 146°
2026-05-07 15:55 57.35047 35.89630 28584 ft 487 kts 146°
2026-05-07 15:55 57.32458 35.93509 28310 ft 485 kts 146°
2026-05-07 15:56 57.29843 35.97429 28036 ft 481 kts 146°
2026-05-07 15:56 57.27272 36.01267 27756 ft 479 kts 146°
2026-05-07 15:56 57.24668 36.05152 27482 ft 479 kts 146°
2026-05-07 15:56 57.22110 36.08962 27208 ft 475 kts 146°
2026-05-07 15:57 57.19545 36.12775 26942 ft 474 kts 146°
2026-05-07 15:57 57.17015 36.16528 26665 ft 472 kts 146°
2026-05-07 15:57 57.14460 36.20311 26407 ft 468 kts 146°
2026-05-07 15:57 57.11933 36.24043 26196 ft 467 kts 146°
2026-05-07 15:58 57.09405 36.27779 26005 ft 466 kts 146°
2026-05-07 15:58 57.06903 36.31457 25785 ft 466 kts 146°
2026-05-07 15:58 57.04399 36.35142 25573 ft 465 kts 146°
2026-05-07 15:58 57.01868 36.38825 25346 ft 463 kts 146°
2026-05-07 15:59 56.99343 36.42471 25024 ft 463 kts 146°
2026-05-07 15:59 56.96829 36.46103 24599 ft 460 kts 146°
2026-05-07 15:59 56.94363 36.49659 24195 ft 455 kts 146°
2026-05-07 15:59 56.91885 36.53223 23806 ft 452 kts 146°
2026-05-07 16:00 56.89423 36.56757 23429 ft 450 kts 146°
2026-05-07 16:00 56.86989 36.60277 23058 ft 449 kts 145°
2026-05-07 16:00 56.84535 36.63827 22675 ft 448 kts 146°
2026-05-07 16:00 56.82122 36.67314 22299 ft 445 kts 146°
2026-05-07 16:01 56.79699 36.70805 21913 ft 444 kts 147°
2026-05-07 16:01 56.77294 36.74264 21536 ft 442 kts 146°
2026-05-07 16:01 56.74876 36.77743 21200 ft 440 kts 146°
2026-05-07 16:01 56.72506 36.81140 20892 ft 441 kts 146°
2026-05-07 16:02 56.70253 36.84935 20558 ft 440 kts 139°
2026-05-07 16:02 56.68094 36.88863 20186 ft 440 kts 139°
2026-05-07 16:02 56.65958 36.92736 19755 ft 438 kts 139°
2026-05-07 16:02 56.63792 36.96644 19288 ft 436 kts 139°
2026-05-07 16:03 56.61671 37.00471 18779 ft 433 kts 139°
2026-05-07 16:03 56.59538 37.04304 18270 ft 432 kts 139°
2026-05-07 16:03 56.57415 37.08118 17779 ft 427 kts 139°
2026-05-07 16:03 56.55344 37.11832 17283 ft 422 kts 139°
2026-05-07 16:04 56.53267 37.15517 16785 ft 414 kts 141°
2026-05-07 16:04 56.50914 37.18350 16252 ft 399 kts 160°
2026-05-07 16:04 56.48313 37.19778 15746 ft 387 kts 172°
2026-05-07 16:04 56.45743 37.20851 15267 ft 382 kts 172°
2026-05-07 16:05 56.43169 37.21907 14764 ft 378 kts 172°
2026-05-07 16:05 56.40608 37.22957 14173 ft 376 kts 172°
2026-05-07 16:05 56.38079 37.23986 13551 ft 376 kts 172°
2026-05-07 16:05 56.35565 37.25005 12941 ft 375 kts 172°
2026-05-07 16:06 56.33022 37.26038 12317 ft 374 kts 172°
2026-05-07 16:06 56.30499 37.27061 11698 ft 373 kts 172°
2026-05-07 16:06 56.27992 37.28075 11081 ft 372 kts 172°
2026-05-07 16:06 56.25474 37.29091 10462 ft 370 kts 172°
2026-05-07 16:07 56.23046 37.30271 9674 ft 354 kts 169°
2026-05-07 16:07 56.20812 37.31689 9029 ft 340 kts 155°
2026-05-07 16:07 56.19028 37.34330 8465 ft 334 kts 132°
2026-05-07 16:07 56.17965 37.37961 7986 ft 325 kts 109°
2026-05-07 16:08 56.17565 37.41825 7552 ft 315 kts 90°
2026-05-07 16:08 56.17877 37.45692 7366 ft 313 kts 77°
2026-05-07 16:08 56.18386 37.49504 6999 ft 315 kts 75°
2026-05-07 16:08 56.18939 37.53299 6584 ft 319 kts 75°
2026-05-07 16:09 56.19111 37.57183 6056 ft 309 kts 101°
2026-05-07 16:09 56.18439 37.60658 5671 ft 289 kts 125°
2026-05-07 16:09 56.17191 37.63339 5269 ft 274 kts 137°
2026-05-07 16:09 56.15902 37.65758 4846 ft 267 kts 138°
2026-05-07 16:10 56.15469 37.66561 4701 ft 265 kts 138°
2026-05-07 16:10 56.14206 37.68889 4270 ft 260 kts 138°
2026-05-07 16:10 56.12960 37.71172 3842 ft 255 kts 138°
2026-05-07 16:10 56.11725 37.73436 3406 ft 251 kts 138°
2026-05-07 16:11 56.10505 37.75623 2977 ft 246 kts 144°
2026-05-07 16:11 56.09045 37.76820 2852 ft 221 kts 179°
2026-05-07 16:11 56.07626 37.76598 2956 ft 201 kts 197°
2026-05-07 16:11 56.06282 37.75985 2877 ft 197 kts 199°
2026-05-07 16:12 56.05000 37.75319 2917 ft 187 kts 200°
2026-05-07 16:12 56.03756 37.74637 2894 ft 187 kts 201°
2026-05-07 16:12 56.02541 37.73888 2912 ft 183 kts 213°
2026-05-07 16:12 56.01735 37.72250 3003 ft 178 kts 249°
2026-05-07 16:13 56.01404 37.70159 2908 ft 179 kts 255°
2026-05-07 16:13 56.01080 37.68023 2905 ft 176 kts 255°
2026-05-07 16:13 56.00763 37.65908 2909 ft 177 kts 255°
2026-05-07 16:13 56.00449 37.63781 2900 ft 174 kts 256°
2026-05-07 16:14 56.00151 37.61773 2775 ft 160 kts 256°
2026-05-07 16:14 55.99882 37.59916 2491 ft 151 kts 256°
2026-05-07 16:14 55.99609 37.58123 2262 ft 149 kts 254°
2026-05-07 16:14 55.99361 37.56396 2046 ft 147 kts 258°
2026-05-07 16:15 55.99272 37.55740 1990 ft 143 kts 255°
2026-05-07 16:15 55.99036 37.54030 1776 ft 141 kts 254°
2026-05-07 16:15 55.98777 37.52352 1620 ft 140 kts 254°
2026-05-07 16:15 55.98516 37.50660 1420 ft 142 kts 254°
2026-05-07 16:16 55.98254 37.48932 1207 ft 144 kts 255°
2026-05-07 16:16 55.97999 37.47205 1003 ft 145 kts 254°
2026-05-07 16:16 55.97731 37.45453 777 ft 148 kts 255°
2026-05-07 16:16 55.97463 37.43663 617 ft 146 kts 255°
2026-05-07 16:17 55.97278 37.42425 611 ft 69 kts 256°
2026-05-07 16:17 55.97165 37.41657 620 ft 50 kts 256°
2026-05-07 16:17 55.97132 37.41422 620 ft 12 kts 263°
2026-05-07 16:17 55.97163 37.41354 620 ft 6 kts 332°
2026-05-07 16:18 55.97201 37.41326 621 ft 5 kts 342°
2026-05-07 16:18 55.97238 37.41307 622 ft 5 kts 346°
2026-05-07 16:18 55.97272 37.41293 622 ft 4 kts 345°
2026-05-07 16:18 55.97304 37.41277 623 ft 5 kts 345°
2026-05-07 16:19 55.97344 37.41257 624 ft 6 kts 345°
2026-05-07 16:19 55.97393 37.41233 625 ft 7 kts 345°
2026-05-07 16:19 55.97407 37.41226 625 ft 8 kts 345°
2026-05-07 16:19 55.97463 37.41200 626 ft 8 kts 345°
2026-05-07 16:20 55.97520 37.41170 627 ft 8 kts 345°
2026-05-07 16:20 55.97582 37.41143 627 ft 9 kts 344°
2026-05-07 16:20 55.97631 37.41190 627 ft 9 kts 69°
2026-05-07 16:20 55.97647 37.41275 627 ft 0 kts 75°
2026-05-07 16:21 55.97655 37.41328 627 ft 7 kts 75°
2026-05-07 16:21 55.97671 37.41428 627 ft 8 kts 68°
2026-05-07 16:21 55.97725 37.41458 627 ft 9 kts 345°
2026-05-07 16:22 55.97747 37.41447 627 ft 0 kts 346°
2026-05-07 16:22 55.97748 37.41447 627 ft 1 kts 346°
2026-05-07 16:22 55.97781 37.41433 627 ft 8 kts 347°
2026-05-07 16:22 55.97833 37.41415 627 ft 1 kts 16°
2026-05-07 16:23 55.97846 37.41487 627 ft 4 kts 95°
2026-05-07 16:23 55.97845 37.41492 627 ft 0 kts 109°
2026-05-07 16:23 55.97844 37.41514 627 ft 4 kts 84°
2026-05-07 16:23 55.97860 37.41538 627 ft 3 kts 12°
2026-05-07 16:24 55.97885 37.41558 627 ft 2 kts 50°
2026-05-07 16:24 55.97893 37.41604 627 ft 4 kts 74°
2026-05-07 16:24 55.97898 37.41636 627 ft 0 kts 75°